C/2018 B1 ( Lemmon )

Japanese version
Home page
Updated on April 13, 2018

---------------------------------------------------------------------

* Profile

Discovery Date January 25, 2018
Magnitude 19.4 mag
Discoverer A. D. Grauer (Mount Lemmon Survey)

* Pictures

* Orbital Elements

Epoch 2018 Mar. 23.0 TT = JDT 2458200.5
T 2018 Mar. 30.56868 TT                                 MPCW
q   5.1169532            (2000.0)            P               Q
z  -0.0005922      Peri.   68.35414     +0.39405529     +0.89229658
 +/-0.0000135      Node   133.15847     +0.69130540     -0.44569989
e   1.0030302      Incl.  162.42300     +0.60565441     -0.07182222
From 82 observations 2017 Jan. 16-2018 Mar. 3, mean residual 0".5.

* Magnitudes Graph

        m1 = 8.5 + 5 log d + 10.0 log r

---------------------------------------------------------------------

The orbital elements are published on M.P.E.C. 2018-F152.
The magnitudes graphs are made with Comet for Windows.

---------------------------------------------------------------------

Copyright(C) Seiichi Yoshida (comet@aerith.net). All rights reserved.